Location: Ferchesar
(52.6477°N, 12.4298°E)
Time: 17:25:14
(UTC+01:00)

Vanguard 3 - Pass Details

Date: 14 December 2021
Orbit: 508 x 3260 km, 33.3° (Epoch: 22 January)

Event Time Altitude Azimuth Distance (km) Brightness Sun altitude
Rises 08:18:45 0° 272° (W) 7,230 11.5 -0.4°
Reaches altitude 10° 08:30:09 10° 244° (WSW) 5,936 11.3 0.9°
Maximum altitude 08:33:30 11° 233° (SW) 5,709 11.4 1.3°
Drops below altitude 10° 08:36:41 10° 222° (SW) 5,588 11.5 1.7°
Sets 08:45:57 0° 191° (S) 5,871 12.1 2.7°
